Total_Precipitation_Accumulation
2.18 2.84 3.53 4.10 4.78 5.55 6.14 6.02 5.42 4.97 4.47 4.00 3.46 3.39 3.19 2.88 2.58 2.30 2.04 2.01 1.96 1.81 1.89 1.80 1.92 1.65 1.69 1.75 1.72 1.96 2.08 1.98 1.97 2.32 2.43 2.01 1.62 1.67 1.68 1.68 1.92 1.98 1.99
2.17 2.93 3.53 3.76 3.80 4.06 4.32 3.81 3.61 3.63 3.34 3.12 3.04 2.95 2.79 2.48 2.25 2.09 2.07 1.72 1.72 1.70 1.63 1.88 1.78 1.70 1.85 1.84 1.82 1.97 2.07 2.00 2.05 2.28 2.58 2.32 2.28 1.99 1.48 1.71 1.84 1.87 2.10
2.29 2.80 2.98 3.00 2.91 2.87 2.85 2.62 2.55 2.88 2.90 2.91 2.91 2.85 2.81 2.65 2.39 2.08 2.05 1.70 1.55 1.57 1.67 1.69 1.80 1.87 1.60 1.82 1.94 1.90 1.97 2.04 1.97 1.99 2.33 2.35 2.34 2.06 1.59 1.53 1.60 1.79 2.10
2.27 2.25 1.84 1.72 1.86 1.95 2.07 2.33 2.41 2.55 2.50 2.62 2.54 2.38 2.15 2.01 1.91 1.85 1.91 1.90 1.68 1.56 1.48 1.56 1.81 1.92 1.69 1.90 1.55 1.66 1.93 2.05 1.91 1.94 1.83 1.81 1.98 2.13 2.07 1.77 1.60 1.70 1.87
1.32 1.15 0.98 1.02 1.26 1.53 1.78 2.19 2.29 2.33 2.27 2.25 2.31 2.42 2.30 2.24 2.08 2.01 2.19 2.16 2.13 1.91 1.57 1.57 1.79 1.93 1.88 1.93 1.80 2.02 1.85 1.77 1.75 1.80 1.84 1.86 1.81 1.69 1.97 2.09 1.94 1.79 1.58
0.69 0.72 0.78 0.96 1.21 1.39 1.50 1.76 1.92 2.09 2.15 2.20 2.30 2.28 2.29 2.40 2.22 2.08 2.01 1.95 2.00 1.96 1.83 1.79 1.99 1.98 1.93 1.98 1.92 1.96 1.84 1.82 1.83 1.76 1.72 1.98 1.99 1.85 1.99 1.89 1.87 1.81 1.42
0.57 0.72 0.80 0.98 1.08 1.19 1.23 1.38 1.48 1.67 1.86 1.98 2.07 2.12 2.20 2.30 2.18 2.08 1.96 1.89 1.77 1.73 1.84 1.93 2.12 2.02 1.97 1.90 1.96 1.95 1.92 1.95 2.01 1.93 1.77 1.78 1.85 1.90 1.91 1.90 1.68 1.58 1.43
0.46 0.51 0.61 0.66 0.77 0.92 1.16 1.35 1.34 1.35 1.42 1.49 1.67 1.84 1.89 1.96 1.96 2.09 1.91 1.78 1.66 1.64 1.79 1.89 1.83 1.82 1.84 1.72 1.94 1.85 1.81 1.88 1.92 1.84 2.12 2.03 1.75 1.85 1.86 1.95 2.10 1.95 1.78
0.50 0.44 0.45 0.57 0.65 0.70 0.83 1.05 1.13 1.15 1.20 1.26 1.39 1.47 1.53 1.67 1.87 1.85 1.68 1.54 1.59 1.61 1.63 1.61 1.65 1.69 1.72 1.82 1.99 1.89 1.87 2.00 1.86 1.83 2.20 2.07 1.77 1.75 1.78 1.86 2.11 2.40 2.17
0.45 0.51 0.52 0.56 0.62 0.63 0.75 0.92 1.08 1.15 1.17 1.18 1.22 1.17 1.32 1.45 1.61 1.65 1.60 1.51 1.44 1.57 1.66 1.62 1.64 1.66 1.62 1.69 1.88 1.79 1.90 2.00 1.95 1.95 2.05 2.04 1.88 1.89 1.91 1.98 2.12 2.38 2.38
0.45 0.56 0.55 0.56 0.52 0.52 0.62 0.76 0.96 1.07 1.02 1.06 1.10 1.18 1.27 1.45 1.51 1.48 1.51 1.50 1.49 1.58 1.64 1.70 1.77 1.72 1.69 1.76 1.85 1.75 1.89 1.93 2.04 2.02 1.98 1.98 2.16 2.16 1.98 2.04 2.09 2.29 2.50
0.50 0.55 0.57 0.54 0.46 0.50 0.60 0.70 0.86 0.99 1.05 1.06 1.13 1.24 1.30 1.37 1.46 1.40 1.48 1.62 1.63 1.68 1.70 1.75 1.87 1.81 1.84 1.90 1.80 1.77 1.86 1.92 1.95 2.07 2.25 2.20 2.25 2.18 2.06 2.15 2.19 2.29 2.55
0.54 0.56 0.66 0.60 0.51 0.52 0.59 0.72 0.98 1.19 1.34 1.37 1.32 1.28 1.24 1.30 1.42 1.47 1.52 1.62 1.72 1.78 1.76 1.71 1.76 1.87 2.02 2.04 1.86 1.78 1.77 1.72 1.68 1.84 2.09 2.34 2.64 2.48 2.31 2.23 2.19 2.25 2.35
0.49 0.59 0.70 0.75 0.79 0.78 0.80 0.94 1.12 1.19 1.30 1.26 1.22 1.28 1.29 1.41 1.55 1.59 1.62 1.66 1.66 1.69 1.77 1.81 1.80 1.82 1.87 1.87 1.86 1.88 1.85 1.77 1.66 1.69 1.78 1.91 2.17 2.38 2.52 2.32 2.16 2.23 2.36
0.61 0.67 0.76 0.83 0.90 0.96 0.95 0.95 1.04 1.05 1.17 1.45 1.56 1.65 1.63 1.66 1.77 1.84 1.79 1.81 1.80 1.76 1.93 2.00 1.99 1.96 1.91 1.76 1.88 2.02 1.90 1.91 1.80 1.75 1.71 1.59 1.71 1.90 2.09 2.05 2.29 2.39 2.37
0.71 0.78 0.82 0.88 0.92 0.97 1.06 1.12 1.14 1.16 1.36 1.76 2.01 2.10 2.12 2.14 2.17 2.20 2.19 2.20 2.15 2.25 2.31 2.22 2.18 2.12 1.89 1.98 1.99 1.98 2.00 2.07 1.99 1.90 1.85 1.68 1.58 1.62 1.73 1.79 1.95 2.17 2.23
0.68 0.74 0.87 0.98 0.98 0.99 1.06 1.17 1.28 1.36 1.49 1.76 1.94 2.03 2.12 2.21 2.34 2.38 2.44 2.45 2.47 2.47 2.47 2.51 2.44 2.32 2.34 2.29 1.97 1.91 1.91 1.99 1.99 2.07 2.09 1.75 1.49 1.66 1.61 1.70 1.72 1.69 1.79
0.75 0.86 0.87 0.99 1.07 1.13 1.23 1.43 1.64 1.79 1.85 1.96 2.15 2.25 2.21 2.23 2.30 2.32 2.27 2.29 2.44 2.47 2.41 2.31 2.20 2.16 2.13 2.10 1.84 1.72 1.62 1.72 1.77 1.78 1.80 1.78 1.65 1.57 1.61 1.60 1.50 1.40 1.41
0.91 1.08 1.22 1.21 1.28 1.40 1.53 1.65 1.92 2.05 2.09 2.10 2.28 2.41 2.49 2.55 2.45 2.34 2.35 2.39 2.43 2.29 2.20 2.10 2.07 2.03 2.02 2.02 1.82 1.71 1.54 1.54 1.54 1.55 1.58 1.62 1.54 1.58 1.53 1.42 1.38 1.33 1.27
0.98 1.09 1.28 1.42 1.44 1.60 1.72 1.77 1.87 1.99 2.09 2.08 2.16 2.32 2.41 2.57 2.68 2.61 2.62 2.57 2.47 2.34 2.26 2.19 2.20 2.19 2.20 2.29 2.02 1.85 1.69 1.70 1.70 1.76 1.74 1.70 1.58 1.54 1.41 1.28 1.27 1.19 1.12
0.97 1.01 1.09 1.26 1.36 1.44 1.53 1.70 1.80 1.80 1.90 1.94 1.93 2.07 2.28 2.45 2.57 2.70 2.73 2.73 2.65 2.52 2.32 2.17 2.11 2.11 2.18 2.31 2.15 1.97 1.75 1.75 1.87 1.92 1.97 1.92 1.79 1.47 1.31 1.18 1.11 1.08 1.16
1.00 1.03 1.10 1.19 1.28 1.42 1.63 1.81 1.86 1.84 1.84 1.89 1.99 2.11 2.29 2.38 2.39 2.45 2.52 2.63 2.62 2.56 2.47 2.23 2.03 1.96 1.92 1.89 1.89 1.71 1.60 1.64 1.74 1.86 1.98 1.99 1.87 1.61 1.43 1.27 1.15 1.15 1.13
1.08 1.04 1.10 1.25 1.44 1.62 1.81 2.01 2.01 2.02 2.03 2.06 2.12 2.19 2.28 2.35 2.39 2.38 2.39 2.39 2.35 2.24 2.16 2.04 1.95 1.92 1.90 1.83 1.68 1.46 1.36 1.39 1.44 1.58 1.89 2.00 1.88 1.69 1.46 1.34 1.26 1.13 1.00
1.12 1.10 1.11 1.21 1.41 1.54 1.63 1.82 1.93 1.97 2.10 2.06 1.98 1.94 1.95 2.00 2.07 2.12 2.14 2.14 2.09 2.03 1.96 1.89 1.87 1.81 1.78 1.69 1.60 1.50 1.35 1.29 1.29 1.32 1.50 1.60 1.58 1.43 1.32 1.22 1.10 0.97 0.94
1.18 1.18 1.21 1.27 1.34 1.40 1.45 1.55 1.68 1.81 2.01 2.10 2.05 2.03 2.01 1.97 1.99 2.05 2.11 1.98 1.92 1.95 1.86 1.75 1.81 1.82 1.69 1.65 1.60 1.49 1.40 1.33 1.35 1.31 1.35 1.44 1.52 1.51 1.44 1.41 1.29 1.17 1.09
1.17 1.26 1.32 1.36 1.36 1.37 1.46 1.57 1.72 1.92 2.13 2.14 2.03 2.03 2.08 2.11 2.11 2.09 2.14 2.19 1.99 1.95 1.83 1.74 1.70 1.67 1.58 1.49 1.34 1.28 1.24 1.16 1.12 1.03 1.09 1.27 1.44 1.57 1.59 1.60 1.53 1.40 1.29